Regional Weather Roundup
Issued by NWS

Home | Current Version | Previous Version | Text Only | Print | Product List | Glossary Off
Versions: 1 2 3 4 5 6 7 8 9 10 11 12 13 14 15 16 17 18 19 20 21 22 23 24 25 26 27 28 29 30 31 32 33 34 35 36 37 38 39 40 41 42 43 44 45 46 47 48 49 50

000
ASUS43 KDMX 201306
RWRIA

WEATHER ROUNDUP FOR IOWA
NATIONAL WEATHER SERVICE DES MOINES IA
800 AM CDT SUN MAY 20 2018

NOTE: "FAIR" INDICATES FEW OR NO CLOUDS BELOW 12,000 FEET WITH NO
SIGNIFICANT WEATHER AND/OR OBSTRUCTIONS TO VISIBILITY.

* - THESE STATIONS ARE NOT NWS STATIONS...THUS NOT UNDER NWS
QUALITY CONTROL.  THEY ALSO DO NOT REPORT WEATHER SUCH
AS PRECIPITATION OR FOG.

IAZ001>003-012>014-020>022-031>034-043>046-201400-
   NORTHWEST IOWA

CITY           SKY/WX    TMP DP  RH WIND       PRES   REMARKS
CARROLL *      CLOUDY   N/A N/A N/A NE15      30.11S
CHEROKEE *     CLOUDY    50  46  88 NE8       30.14S
DENISON *      CLOUDY    52  50  93 NE9       30.13R
LE MARS *      CLOUDY    52  48  87 NE13      30.14S
ORANGE CITY *  CLOUDY    52  46  82 NE8       30.16R
SHELDON *      CLOUDY    50  46  87 NE15G21   30.14S
SIOUX CITY     CLOUDY    52  46  80 NE12      30.14R
SPENCER        CLOUDY    51  42  71 NE15      30.16R
STORM LAKE *   CLOUDY    48  45  87 NE18G26   30.13R
$$

IAZ055>058-069>071-079>083-090>094-201400-
   SOUTHWEST IOWA

CITY           SKY/WX    TMP DP  RH WIND       PRES   REMARKS
ATLANTIC *     CLOUDY    55  54  94 NE13G20   30.09R
AUDUBON *      CLOUDY    54  48  82 NE12      30.12R
CLARINDA *     CLOUDY    59  55  88 NE7       30.10R
COUNCIL BLFS * CLOUDY    55  55 100 NE7       30.10R
CRESTON *      CLOUDY    57  54  88 NE14      30.08S
HARLAN  *      CLOUDY    54  54 100 NE12      30.14R
LAMONI         CLOUDY    59  57  93 N8        30.06S FOG
RED OAK *      CLOUDY    57  55  94 MISG      30.08S
SHENANDOAH *   CLOUDY    59  55  88 NE9       30.09R
$$

IAZ047>049-059>061-072>074-084-201400-
   CENTRAL IOWA

CITY           SKY/WX    TMP DP  RH WIND       PRES   REMARKS
AMES           CLOUDY    55  49  80 N10       30.11R
ANKENY *       CLOUDY    55  52  88 N9        30.10R
BOONE *        CLOUDY    54  48  82 NE12      30.11R
CHARITON *     CLOUDY    59  57  94 N8        30.07R
DES MOINES     CLOUDY    58  52  80 N10       30.08R
GRINNELL*      CLOUDY    57  52  83 N12       30.08R
KNOXVILLE *    CLOUDY    59  55  88 N6        30.06R
MARSHALLTOWN   CLOUDY    55  52  89 NE10      30.09R
NEWTON *       CLOUDY    57  52  82 N9G16     30.08R
PELLA *        CLOUDY    60  53  79 N8        30.08R
PERRY *        CLOUDY    54  50  87 NE10      30.11S
$$

IAZ004>006-015-016-023>025-035-036-201400-
   NORTH CENTRAL IOWA

CITY           SKY/WX    TMP DP  RH WIND       PRES   REMARKS
ALGONA *       CLOUDY    50  45  81 NE13G20   30.15S
CLARION *      CLOUDY    52  45  76 NE13      30.13R
ESTHERVILLE    CLOUDY    48  41  76 NE14      30.15F
FORT DODGE *   CLOUDY    51  46  83 N12       30.14R
MASON CITY     CLOUDY    50  44  80 NE14      30.16R
FOREST CITY *  CLOUDY    50  45  81 NE9       30.15S
WEBSTER CITY * CLOUDY    54  46  76 NE7       30.12R
IOWA FALLS *   CLOUDY    52  49  90 NE12      30.12R
$$

IAZ007>011-017>019-026>030-037>042-050>054-066-201400-
   NORTHEAST IOWA

CITY           SKY/WX    TMP DP  RH WIND       PRES   REMARKS
CEDAR RAPIDS   CLOUDY    60  59  96 NE10      30.05R FOG
CHARLES CITY * CLOUDY    50  46  87 NE13G20   30.13S
CLINTON *      TSTM      52  49  89 E18       30.13R FOG
DECORAH *      CLOUDY    50  48  93 VRB6      30.14R
DUBUQUE        CLOUDY    51  48  89 NE15G24   30.11R
MONTICELLO *   PTSUNNY   57  55  94 E13G22    30.08R
OELWEIN *      CLOUDY    54  52  94 NE16      30.11R
WATERLOO       CLOUDY    52  50  93 NE12      30.10R
$$

IAZ064-065-067-068-078-201400-
   EAST CENTRAL IOWA

CITY           SKY/WX    TMP DP  RH WIND       PRES   REMARKS
DAVENPORT      LGT RAIN  56  53  90 NE18G25   30.13R FOG
IOWA CITY      CLOUDY    66  61  84 E9G20     30.06R
MT. PLEASANT * FOG       63  63 100 W5        30.05R VSB 1
MUSCATINE *    CLOUDY    66  63  88 E7        30.05R
QUAD CITIES    CLOUDY    60  56  86 E16G25    30.07R FOG
$$

IAZ062-063-075>077-085>089-095>099-201400-
   SOUTHEAST IOWA

CITY           SKY/WX    TMP DP  RH WIND       PRES   REMARKS
BURLINGTON     CLOUDY    67  63  87 VRB3      30.03R
FAIRFIELD *    CLOUDY    64  64 100 N5        30.04R FOG
FORT MADISON * CLOUDY    66  64  94 W3        30.04R
KEOKUK *       CLOUDY    66  64  94 SW5       30.03R
OSKALOOSA *    CLOUDY    61  59  92 N10       30.06R
CENTERVILLE *  FOG       61  61 100 N8        30.07R VSB 1/2
OTTUMWA        CLOUDY    63  62  97 N12       30.04R FOG
WASHINGTON *   CLOUDY    66  66 100 NE10      30.04R
$$

ABBREVIATIONS USED IN REMARKS
   TC - TEMPERATURES IN CELSIUS
  WCI - WIND CHILL INDEX
   HX - HEAT INDEX
  VSB - VISIBILITY
$$





USA.gov is the U.S. government's official web portal to all federal, state and local government web resources and services.